Location: ??? ?????
(30.6482°N, 60.5850°E)
Time: 21:06:43
(UTC+00:00)

Cosmos 2297 Rocket - Pass Details

Date: 09 April 2020
Orbit: 840 x 843 km, 71.0° (Epoch: 24 May)

Event Time Altitude Azimuth Distance (km) Brightness Sun altitude
Exits shadow 22:25:18 19° 358° (N) 1,924 4.3 -37.8°
Drops below altitude 10° 22:26:52 10° 5° (N) 2,464 5.1 -37.6°
Sets 22:29:27 0° 12° (NNE) 3,402 6.0 -37.1°
